Location: lozzo di cadore
(46.4899°N, 12.4508°E)
Time: 14:02:30
(UTC+02:00)

Envisat - Pass Details

Date: 03 May 2025
Orbit: 761 x 763 km, 98.3° (Epoch: 14 May)

Event Time Altitude Azimuth Distance (km) Brightness Sun altitude
Rises 03:54:01 0° 16° (NNE) 3,234 7.4 -17.4°
Reaches altitude 10° 03:56:22 10° 20° (NNE) 2,303 6.5 -17.1°
Maximum altitude 04:01:24 62° 101° (ESE) 856 3.4 -16.5°
Enters shadow 04:05:32 15° 180° (S) 1,954 4.7 -16.0°
